Location: Brunembert
(50.7122°N, 1.8935°E)
Time: 09:46:39
(UTC+00:00)

Cosmos 2237 Rocket - Pass Details

Date: 22 April 2021
Orbit: 836 x 849 km, 71.0° (Epoch: 05 May)

Event Time Altitude Azimuth Distance (km) Brightness Sun altitude
Rises 20:17:13 0° 328° (NNW) 3,405 6.8 -11.6°
Reaches altitude 10° 20:19:43 10° 324° (NW) 2,465 5.9 -11.9°
Maximum altitude 20:25:13 56° 248° (WSW) 990 2.7 -12.6°
Drops below altitude 10° 20:30:41 10° 171° (S) 2,443 4.2 -13.3°
Enters shadow 20:30:46 10° 171° (S) 2,477 4.2 -13.3°
